Location: Unspecified
(0.0000°N, 0.0000°E)
Time: 21:41:31
(UTC+00:00)

Transit 4A - Pass Details

Date: 28 April 2024
Orbit: 871 x 971 km, 66.8° (Epoch: 22 May)

Event Time Altitude Azimuth Distance (km) Brightness Sun altitude
Rises 20:10:39 0° 8° (N) 3,479 11.0 -32.1°
Enters shadow 20:12:22 - 15° (NNE) 2,944 10.5 -32.5°
Reaches altitude 10° 20:13:46 10° 24° (NNE) 2,558 - -32.9°
Maximum altitude 20:18:04 21° 71° (ENE) 1,932 - -33.9°
Drops below altitude 10° 20:22:26 10° 117° (ESE) 2,615 - -34.9°
Sets 20:25:38 0° 133° (SE) 3,580 - -35.7°
